Weather History for Montauk, NY

Change the Weather History Date:

Sunday, October 7, 2012

  Actual Average (KHTO) Record (KHTO)
Temperature  
Mean Temperature 54 °F -  
Max Temperature 57 °F 65 °F 81 °F (1946)
Min Temperature 50 °F 46 °F 28 °F (1984)
Degree Days  
Heating Degree Days 11    
Growing Degree Days 4 (Base 50)    
Moisture  
Dew Point 41 °F    
Average Humidity 63    
Maximum Humidity 89    
Minimum Humidity 49    
Precipitation  
Precipitation 0.14 in - - ()
Sea Level Pressure  
Sea Level Pressure 30.06 in    
Wind  
Wind Speed 8 mph (NNW)    
Max Wind Speed 14 mph    
Max Gust Speed 21 mph    
Averages and records for this station are not official NWS values.
T = Trace of Precipitation, MM = Missing Value Source: NWS Daily Summary

Daily Weather History Graph

Daily Weather History Graph

Search for Another Location

Airport:

Trip Planner

Search our weather history database for the weather conditions in past years. The results will help you decide how hot, cold, wet, or windy it might be!

Date:

Astronomy

Oct. 07, 2012 Rise Set
Actual Time 6:51 AM EDT 6:18 PM EDT
Civil Twilight 6:23 AM EDT 6:46 PM EDT
Nautical Twilight 5:51 AM EDT 7:18 PM EDT
Astronomical Twilight 5:19 AM EDT 7:50 PM EDT
Moon 11:25 PM EDT (10/7) 1:28 PM EDT (10/7)
Length of Visible Light 12h 22m
Length of Day
11h 27m
Waning Gibbous, 56% of the Moon is Illuminated
Oct 7
Waning Gibbous
Oct 8
Last Quarter
Oct 15
New
Oct 21
First Quarter
Oct 29
Full

Hourly Weather History & Observations

Time (EDT) Temp. Dew Point Humidity Pressure Visibility Wind Dir Wind Speed Gust Speed Precip Events Conditions
12:54 AM 57.9 °F 43.0 °F 58% 29.99 in - NW 11.5 mph - N/A   Unknown
1:54 AM 57.9 °F 39.0 °F 49% 30.01 in - NNW 12.7 mph - N/A   Unknown
2:54 AM 55.9 °F 39.0 °F 53% 30.01 in - NNW 11.5 mph 20.7 mph N/A   Unknown
3:54 AM 55.9 °F 37.9 °F 51% 30.03 in - NNW 8.1 mph - N/A   Unknown
4:54 AM 55.0 °F 37.0 °F 51% 30.03 in - NNW 8.1 mph - N/A   Unknown
5:54 AM 55.0 °F 36.0 °F 49% 30.04 in - NW 9.2 mph - N/A   Unknown
6:54 AM 54.0 °F 36.0 °F 51% 30.07 in - NNW 9.2 mph 17.3 mph N/A   Unknown
7:54 AM 54.0 °F 37.9 °F 55% 30.09 in - NNW 8.1 mph - N/A   Unknown
8:54 AM 54.0 °F 37.9 °F 55% 30.09 in - North 5.8 mph - N/A   Unknown
9:54 AM 55.9 °F 37.9 °F 51% 30.09 in - North 5.8 mph - N/A   Unknown
10:54 AM 57.0 °F 37.9 °F 49% 30.08 in - NNW 5.8 mph - N/A   Unknown
11:54 AM 57.0 °F 39.0 °F 51% 30.08 in - Calm Calm - N/A   Unknown
12:54 PM 57.0 °F 41.0 °F 55% 30.08 in - NW 3.5 mph - N/A   Unknown
1:54 PM 57.9 °F 39.0 °F 49% 30.08 in - NW 3.5 mph - N/A   Unknown
2:54 PM 54.0 °F 45.0 °F 72% 30.08 in - Calm Calm - 0.05 in   Unknown
3:54 PM 53.1 °F 46.0 °F 77% 30.06 in - Calm Calm - 0.04 in   Unknown
6:54 PM 51.1 °F 48.0 °F 89% 30.03 in - Calm Calm - N/A   Unknown
7:54 PM 52.0 °F 48.9 °F 89% 30.03 in - Calm Calm - N/A   Unknown
8:54 PM 54.0 °F 46.9 °F 77% 30.06 in - Calm Calm - N/A   Unknown
9:54 PM 52.0 °F 46.0 °F 80% 30.07 in - Calm Calm - N/A   Unknown
10:54 PM 51.1 °F 48.0 °F 89% 30.09 in - WNW 13.8 mph 19.6 mph 0.03 in   Unknown
11:54 PM 50.0 °F 45.0 °F 83% 30.11 in - WNW 10.4 mph - 0.02 in   Unknown